Time,TemperatureF,DewpointF,PressureIn,WindDirection,WindDirectionDegrees,WindSpeedMPH,WindSpeedGustMPH,Humidity,HourlyPrecipIn,Conditions,Clouds,dailyrainin,SoftwareType,DateUTC
2013-03-11 00:02:00,35.0,35.0,-100.00,NE,40,11.0,21.0,99,-99.99,,,-99.99,,2013-03-11 04:02:00,
2013-03-11 00:12:00,35.0,35.0,-100.00,NE,40,11.0,21.0,99,-99.99,,,-99.99,,2013-03-11 04:12:00,
2013-03-11 00:23:00,36.0,-99.9,-100.00,NE,45,11.0,19.0,-999,-99.99,,,-99.99,,2013-03-11 04:23:00,
2013-03-11 00:33:00,36.0,-99.9,-100.00,NE,50,14.0,23.0,-999,-99.99,,,-99.99,,2013-03-11 04:33:00,
2013-03-11 00:43:00,36.0,-99.9,-100.00,NE,50,14.0,23.0,-999,-99.99,,,-99.99,,2013-03-11 04:43:00,
2013-03-11 00:53:00,36.0,-99.9,-100.00,NE,35,10.0,22.0,-999,-99.99,,,-99.99,,2013-03-11 04:53:00,
2013-03-11 01:04:00,36.0,-99.9,-100.00,NE,45,14.0,24.0,-999,-99.99,,,-99.99,,2013-03-11 05:04:00,
2013-03-11 01:12:00,36.0,-99.9,-100.00,NE,45,14.0,24.0,-999,-99.99,,,-99.99,,2013-03-11 05:12:00,
2013-03-11 01:22:00,36.0,-99.9,-100.00,ENE,60,14.0,21.0,-999,-99.99,,,-99.99,,2013-03-11 05:22:00,
2013-03-11 01:32:00,36.0,-99.9,-100.00,NE,45,18.0,29.0,-999,-99.99,,,-99.99,,2013-03-11 05:32:00,
2013-03-11 01:43:00,36.0,-99.9,-100.00,NE,45,18.0,29.0,-999,-99.99,,,-99.99,,2013-03-11 05:43:00,
2013-03-11 01:52:00,36.0,-99.9,-100.00,NE,50,16.0,25.0,-999,-99.99,,,-99.99,,2013-03-11 05:52:00,
2013-03-11 02:02:00,35.0,-99.9,-100.00,ENE,60,15.0,29.0,-999,-99.99,,,-99.99,,2013-03-11 06:02:00,
2013-03-11 02:12:00,35.0,-99.9,-100.00,ENE,60,15.0,29.0,-999,-99.99,,,-99.99,,2013-03-11 06:12:00,
2013-03-11 02:22:00,35.0,-99.9,-100.00,NE,45,13.0,24.0,-999,-99.99,,,-99.99,,2013-03-11 06:22:00,
2013-03-11 02:33:00,35.0,-99.9,-100.00,NE,35,16.0,24.0,-999,-99.99,,,-99.99,,2013-03-11 06:33:00,
2013-03-11 02:42:00,35.0,-99.9,-100.00,NE,35,16.0,24.0,-999,-99.99,,,-99.99,,2013-03-11 06:42:00,
2013-03-11 02:53:00,35.0,-99.9,-100.00,NE,40,14.0,26.0,-999,-99.99,,,-99.99,,2013-03-11 06:53:00,
2013-03-11 03:03:00,35.0,-99.9,-100.00,NE,55,17.0,27.0,-999,-99.99,,,-99.99,,2013-03-11 07:03:00,
2013-03-11 03:12:00,35.0,-99.9,-100.00,NE,55,17.0,27.0,-999,-99.99,,,-99.99,,2013-03-11 07:12:00,
2013-03-11 03:22:00,35.0,-99.9,-100.00,NE,40,15.0,23.0,-999,-99.99,,,-99.99,,2013-03-11 07:22:00,
2013-03-11 03:33:00,35.0,-99.9,-100.00,NE,45,17.0,31.0,-999,-99.99,,,-99.99,,2013-03-11 07:33:00,
2013-03-11 03:42:00,35.0,-99.9,-100.00,NE,45,17.0,31.0,-999,-99.99,,,-99.99,,2013-03-11 07:42:00,
2013-03-11 03:52:00,35.0,-99.9,-100.00,NE,35,16.0,25.0,-999,-99.99,,,-99.99,,2013-03-11 07:52:00,
2013-03-11 04:02:00,35.0,-99.9,-100.00,NNE,30,15.0,26.0,-999,-99.99,,,-99.99,,2013-03-11 08:02:00,
2013-03-11 04:12:00,35.0,-99.9,-100.00,NNE,30,15.0,26.0,-999,-99.99,,,-99.99,,2013-03-11 08:12:00,
2013-03-11 04:23:00,35.0,-99.9,-100.00,NNE,30,16.0,26.0,-999,-99.99,,,-99.99,,2013-03-11 08:23:00,
2013-03-11 04:33:00,35.0,-99.9,-100.00,NNE,30,16.0,26.0,-999,-99.99,,,-99.99,,2013-03-11 08:33:00,
2013-03-11 04:52:00,35.0,-99.9,-100.00,NE,35,14.0,24.0,-999,-99.99,,,-99.99,,2013-03-11 08:52:00,
2013-03-11 05:02:00,35.0,-99.9,-100.00,NE,50,14.0,24.0,-999,-99.99,,,-99.99,,2013-03-11 09:02:00,
2013-03-11 05:12:00,35.0,-99.9,-100.00,NE,50,14.0,24.0,-999,-99.99,,,-99.99,,2013-03-11 09:12:00,
2013-03-11 05:23:00,35.0,-99.9,-100.00,NE,50,14.0,24.0,-999,-99.99,,,-99.99,,2013-03-11 09:23:00,
2013-03-11 05:32:00,35.0,-99.9,-100.00,NE,40,15.0,24.0,-999,-99.99,,,-99.99,,2013-03-11 09:32:00,
2013-03-11 05:42:00,35.0,-99.9,-100.00,NE,40,15.0,24.0,-999,-99.99,,,-99.99,,2013-03-11 09:42:00,
2013-03-11 05:53:00,35.0,-99.9,-100.00,NE,45,13.0,26.0,-999,-99.99,,,-99.99,,2013-03-11 09:53:00,
2013-03-11 06:03:00,35.0,-99.9,-100.00,ENE,60,12.0,31.0,-999,-99.99,,,-99.99,,2013-03-11 10:03:00,
2013-03-11 06:12:00,35.0,-99.9,-100.00,ENE,60,12.0,31.0,-999,-99.99,,,-99.99,,2013-03-11 10:12:00,
2013-03-11 06:22:00,34.0,-99.9,-100.00,NE,55,18.0,34.0,-999,-99.99,,,-99.99,,2013-03-11 10:22:00,
2013-03-11 06:33:00,34.0,-99.9,-100.00,NE,45,17.0,24.0,-999,-99.99,,,-99.99,,2013-03-11 10:33:00,
2013-03-11 06:42:00,34.0,-99.9,-100.00,NE,45,17.0,24.0,-999,-99.99,,,-99.99,,2013-03-11 10:42:00,
2013-03-11 06:53:00,34.0,-99.9,-100.00,NNE,30,14.0,24.0,-999,-99.99,,,-99.99,,2013-03-11 10:53:00,
2013-03-11 07:03:00,34.0,-99.9,-100.00,NE,45,16.0,26.0,-999,-99.99,,,-99.99,,2013-03-11 11:03:00,
2013-03-11 07:13:00,34.0,-99.9,-100.00,NE,45,16.0,26.0,-999,-99.99,,,-99.99,,2013-03-11 11:13:00,
2013-03-11 07:23:00,34.0,-99.9,-100.00,NE,50,14.0,29.0,-999,-99.99,,,-99.99,,2013-03-11 11:23:00,
2013-03-11 07:33:00,34.0,-99.9,-100.00,NNE,30,14.0,26.0,-999,-99.99,,,-99.99,,2013-03-11 11:33:00,
2013-03-11 07:43:00,34.0,-99.9,-100.00,NNE,30,14.0,26.0,-999,-99.99,,,-99.99,,2013-03-11 11:43:00,
2013-03-11 07:53:00,34.0,-99.9,-100.00,NE,50,17.0,26.0,-999,-99.99,,,-99.99,,2013-03-11 11:53:00,
2013-03-11 08:02:00,34.0,-99.9,-100.00,NE,40,16.0,25.0,-999,-99.99,,,-99.99,,2013-03-11 12:02:00,
2013-03-11 08:12:00,34.0,-99.9,-100.00,NE,40,16.0,25.0,-999,-99.99,,,-99.99,,2013-03-11 12:12:00,
2013-03-11 08:23:00,34.0,-99.9,-100.00,NE,45,17.0,29.0,-999,-99.99,,,-99.99,,2013-03-11 12:23:00,
2013-03-11 08:33:00,34.0,-99.9,-100.00,NE,40,16.0,29.0,-999,-99.99,,,-99.99,,2013-03-11 12:33:00,
2013-03-11 08:43:00,34.0,-99.9,-100.00,NE,40,16.0,29.0,-999,-99.99,,,-99.99,,2013-03-11 12:43:00,
2013-03-11 08:53:00,34.0,-99.9,-100.00,NNE,30,15.0,29.0,-999,-99.99,,,-99.99,,2013-03-11 12:53:00,
2013-03-11 09:03:00,34.0,-99.9,-100.00,NNE,30,16.0,26.0,-999,-99.99,,,-99.99,,2013-03-11 13:03:00,
2013-03-11 09:13:00,34.0,-99.9,-100.00,NNE,30,16.0,26.0,-999,-99.99,,,-99.99,,2013-03-11 13:13:00,
2013-03-11 09:23:00,34.0,-99.9,-100.00,NNE,25,15.0,27.0,-999,-99.99,,,-99.99,,2013-03-11 13:23:00,
2013-03-11 09:33:00,34.0,-99.9,-100.00,NE,35,14.0,24.0,-999,-99.99,,,-99.99,,2013-03-11 13:33:00,
2013-03-11 09:43:00,34.0,-99.9,-100.00,NE,35,14.0,24.0,-999,-99.99,,,-99.99,,2013-03-11 13:43:00,
2013-03-11 09:53:00,34.0,-99.9,-100.00,NNE,25,11.0,26.0,-999,-99.99,,,-99.99,,2013-03-11 13:53:00,
2013-03-11 10:02:00,34.0,-99.9,-100.00,NNE,30,14.0,23.0,-999,-99.99,,,-99.99,,2013-03-11 14:02:00,
2013-03-11 10:13:00,34.0,-99.9,-100.00,NNE,30,14.0,23.0,-999,-99.99,,,-99.99,,2013-03-11 14:13:00,
2013-03-11 10:23:00,34.0,-99.9,-100.00,NNE,25,14.0,26.0,-999,-99.99,,,-99.99,,2013-03-11 14:23:00,
2013-03-11 10:33:00,34.0,-99.9,-100.00,NNE,30,19.0,27.0,-999,-99.99,,,-99.99,,2013-03-11 14:33:00,
2013-03-11 10:43:00,34.0,-99.9,-100.00,NNE,30,19.0,27.0,-999,-99.99,,,-99.99,,2013-03-11 14:43:00,
2013-03-11 10:53:00,34.0,-99.9,-100.00,NNE,25,15.0,24.0,-999,-99.99,,,-99.99,,2013-03-11 14:53:00,
2013-03-11 11:03:00,34.0,-99.9,-100.00,NNE,25,15.0,24.0,-999,-99.99,,,-99.99,,2013-03-11 15:03:00,
2013-03-11 11:13:00,34.0,-99.9,-100.00,NNE,25,15.0,24.0,-999,-99.99,,,-99.99,,2013-03-11 15:13:00,
2013-03-11 11:23:00,34.0,-99.9,-100.00,NNE,25,13.0,24.0,-999,-99.99,,,-99.99,,2013-03-11 15:23:00,
2013-03-11 11:33:00,34.0,-99.9,-100.00,NNE,25,14.0,21.0,-999,-99.99,,,-99.99,,2013-03-11 15:33:00,
2013-03-11 11:43:00,34.0,-99.9,-100.00,NNE,25,14.0,21.0,-999,-99.99,,,-99.99,,2013-03-11 15:43:00,
2013-03-11 11:54:00,34.0,-99.9,-100.00,NNE,30,15.0,23.0,-999,-99.99,,,-99.99,,2013-03-11 15:54:00,
2013-03-11 12:03:00,34.0,-99.9,-100.00,NNE,30,15.0,23.0,-999,-99.99,,,-99.99,,2013-03-11 16:03:00,
2013-03-11 12:23:00,34.0,-99.9,-100.00,NNE,30,14.0,21.0,-999,-99.99,,,-99.99,,2013-03-11 16:23:00,
2013-03-11 12:33:00,34.0,-99.9,-100.00,NNE,25,16.0,21.0,-999,-99.99,,,-99.99,,2013-03-11 16:33:00,
2013-03-11 12:43:00,34.0,-99.9,-100.00,NNE,25,16.0,21.0,-999,-99.99,,,-99.99,,2013-03-11 16:43:00,
2013-03-11 12:53:00,35.0,-99.9,-100.00,NNE,25,15.0,21.0,-999,-99.99,,,-99.99,,2013-03-11 16:53:00,
2013-03-11 13:03:00,35.0,-99.9,-100.00,NNE,25,15.0,21.0,-999,-99.99,,,-99.99,,2013-03-11 17:03:00,
2013-03-11 13:29:00,35.0,-99.9,-100.00,NNE,15,17.0,23.0,-999,-99.99,,,-99.99,,2013-03-11 17:29:00,
2013-03-11 13:39:00,35.0,-99.9,-100.00,NNE,20,15.0,25.0,-999,-99.99,,,-99.99,,2013-03-11 17:39:00,
2013-03-11 13:52:00,35.0,35.0,-100.00,NNE,20,19.0,26.0,99,-99.99,,,-99.99,,2013-03-11 17:52:00,
2013-03-11 14:02:00,35.0,35.0,-100.00,NNE,20,19.0,26.0,99,-99.99,,,-99.99,,2013-03-11 18:02:00,
2013-03-11 14:23:00,35.0,34.0,-100.00,NNE,15,20.0,28.0,97,-99.99,,,-99.99,,2013-03-11 18:23:00,
2013-03-11 14:32:00,35.0,34.0,-100.00,North,10,19.0,27.0,97,-99.99,,,-99.99,,2013-03-11 18:32:00,
2013-03-11 14:42:00,35.0,34.0,-100.00,North,10,19.0,27.0,97,-99.99,,,-99.99,,2013-03-11 18:42:00,
2013-03-11 14:52:00,35.0,34.0,-100.00,NNE,25,21.0,29.0,96,-99.99,,,-99.99,,2013-03-11 18:52:00,
2013-03-11 15:02:00,35.0,33.0,-100.00,NNE,20,21.0,29.0,94,-99.99,,,-99.99,,2013-03-11 19:02:00,
2013-03-11 15:12:00,35.0,33.0,-100.00,NNE,20,21.0,29.0,94,-99.99,,,-99.99,,2013-03-11 19:12:00,
2013-03-11 15:22:00,35.0,33.0,-100.00,NNE,20,18.0,25.0,94,-99.99,,,-99.99,,2013-03-11 19:22:00,
2013-03-11 15:33:00,35.0,33.0,-100.00,NNE,20,14.0,23.0,95,-99.99,,,-99.99,,2013-03-11 19:33:00,
2013-03-11 15:42:00,35.0,33.0,-100.00,NNE,20,14.0,23.0,95,-99.99,,,-99.99,,2013-03-11 19:42:00,
2013-03-11 15:52:00,34.0,33.0,-100.00,NNE,20,16.0,24.0,94,-99.99,,,-99.99,,2013-03-11 19:52:00,
2013-03-11 16:02:00,34.0,33.0,-100.00,NNE,20,17.0,21.0,95,-99.99,,,-99.99,,2013-03-11 20:02:00,
2013-03-11 16:12:00,34.0,33.0,-100.00,NNE,20,17.0,21.0,95,-99.99,,,-99.99,,2013-03-11 20:12:00,
2013-03-11 16:22:00,34.0,33.0,-100.00,NNE,25,16.0,24.0,94,-99.99,,,-99.99,,2013-03-11 20:22:00,
2013-03-11 16:32:00,35.0,33.0,-100.00,NNE,15,12.0,18.0,94,-99.99,,,-99.99,,2013-03-11 20:32:00,
2013-03-11 16:43:00,35.0,33.0,-100.00,NNE,15,12.0,18.0,94,-99.99,,,-99.99,,2013-03-11 20:43:00,
2013-03-11 16:52:00,34.0,33.0,-100.00,NNE,20,14.0,19.0,95,-99.99,,,-99.99,,2013-03-11 20:52:00,
2013-03-11 17:03:00,34.0,33.0,-100.00,North,10,15.0,25.0,95,-99.99,,,-99.99,,2013-03-11 21:03:00,
2013-03-11 17:12:00,34.0,33.0,-100.00,North,10,15.0,25.0,95,-99.99,,,-99.99,,2013-03-11 21:12:00,
2013-03-11 17:22:00,34.0,32.0,-100.00,NNE,20,19.0,26.0,93,-99.99,,,-99.99,,2013-03-11 21:22:00,
2013-03-11 17:32:00,34.0,32.0,-100.00,NNE,20,14.0,21.0,94,-99.99,,,-99.99,,2013-03-11 21:32:00,
2013-03-11 17:52:00,34.0,33.0,-100.00,NNE,15,16.0,23.0,95,-99.99,,,-99.99,,2013-03-11 21:52:00,
2013-03-11 18:03:00,34.0,33.0,-100.00,NNE,15,16.0,23.0,95,-99.99,,,-99.99,,2013-03-11 22:03:00,
2013-03-11 18:22:00,33.0,31.0,-100.00,North,10,18.0,28.0,93,-99.99,,,-99.99,,2013-03-11 22:22:00,
2013-03-11 18:32:00,33.0,31.0,-100.00,North,10,18.0,28.0,93,-99.99,,,-99.99,,2013-03-11 22:32:00,
2013-03-11 18:50:00,32.0,30.0,-100.00,North,10,18.0,25.0,94,-99.99,,,-99.99,,2013-03-11 22:50:00,
2013-03-11 18:53:00,33.0,31.0,-100.00,North,10,19.0,32.0,92,-99.99,,,-99.99,,2013-03-11 22:53:00,
2013-03-11 19:03:00,33.0,30.0,-100.00,NNE,15,21.0,27.0,91,-99.99,,,-99.99,,2013-03-11 23:03:00,
2013-03-11 19:12:00,33.0,30.0,-100.00,NNE,15,21.0,27.0,91,-99.99,,,-99.99,,2013-03-11 23:12:00,
2013-03-11 19:22:00,32.0,30.0,-100.00,NNE,20,17.0,32.0,91,-99.99,,,-99.99,,2013-03-11 23:22:00,
2013-03-11 19:32:00,32.0,30.0,-100.00,North,10,18.0,25.0,94,-99.99,,,-99.99,,2013-03-11 23:32:00,
2013-03-11 19:43:00,32.0,30.0,-100.00,North,10,18.0,25.0,94,-99.99,,,-99.99,,2013-03-11 23:43:00,